Regional Weather Roundup
Issued by NWS

Home | Current Version | Previous Version | Text Only | Print | Product List | Glossary Off
Versions: 1 2 3 4 5 6 7 8 9 10 11 12 13 14 15 16 17 18 19 20 21 22 23 24 25 26 27 28 29 30 31 32 33 34 35 36 37 38 39 40 41 42 43 44 45 46 47 48 49 50

214
ASUS43 KIND 301009
RWRIN

WEATHER ROUNDUP FOR INDIANA
NATIONAL WEATHER SERVICE INDIANAPOLIS IN
600 AM EDT SAT JUL 30 2016

NOTE: "FAIR" INDICATES FEW OR NO CLOUDS BELOW 12,000 FEET WITH NO
SIGNIFICANT WEATHER AND/OR OBSTRUCTIONS TO VISIBILITY.

* - STATION DOES NOT REPORT WEATHER SUCH AS PRECIPITATION OR FOG.

+ - STATION NOT QUALITY CONTROLLED BY THE NATIONAL WEATHER SERVICE.
    USE DATA WITH CAUTION...ESPECIALLY DEWPOINT AND RELATIVE
    HUMIDITY OBSERVATIONS.

INZ001>003-010>013-019-020-301100-
NORTHWEST INDIANA

CITY           SKY/WX    TMP DP  RH WIND       PRES   REMARKS
GARY /AIRPORT/ PTCLDY    66  66 100 CALM      29.92S
KNOX *+        CLOUDY    66  64  94 CALM      29.92S
LA PORTE +     CLOUDY   N/A N/A N/A E3        29.93S HAZE
MICHIGAN CITY+ CLOUDY    68  68 100 CALM      29.93S FOG
MONTICELLO +   CLOUDY    68  64  87 CALM      29.91S FOG
RENSSELAER +   FOG       64  64 100 NE3       29.92S VSB 1/4
VALPARAISO     CLOUDY    68  67  96 E5        29.93S

$$

LMZ046-743>745-301100-
SOUTHERN LAKE MICHIGAN

STATION/POSITION TIME  TEMP    WIND        PRES    WAVE
                       AIR SEA DIR/SP/G            HT
                 (UTC) (F)     (DEG/KT/KT) (MB)    (FT)
BURNS HARBOR     0906   70     120/  4/ 11 1013.5F
MICHIGAN CITY    0900   68     110/  9/ 10   N/A
5NW MICH CITY    1000   69 76  120/  8/ 10   N/A     2

$$

INZ004-005-014>016-021>024-301100-
NORTH CENTRAL INDIANA

CITY           SKY/WX    TMP DP  RH WIND       PRES   REMARKS
GOSHEN         CLOUDY    69  65  86 E5        29.94R FOG
LOGANSPORT +   CLOUDY    68  68 100 SE3       29.93S FOG
PERU/GRISSOM   CLOUDY    69  69 100 E2        29.91S FOG
ROCHESTER +    CLOUDY    70  70 100 SE7       29.93S FOG
SOUTH BEND     CLOUDY    68  66  93 NE3       29.94R
WARSAW +       CLOUDY    68  68 100 E6        29.93S FOG

$$

INZ006>009-017-018-025>027-301100-
NORTHEAST INDIANA

CITY           SKY/WX    TMP DP  RH WIND       PRES   REMARKS
ANGOLA *+      CLOUDY    64  55  72 NE3       29.94S
AUBURN +       CLOUDY    66  63  88 CALM      29.95S
FORT WAYNE     CLOUDY    70  68  93 E6        29.93S FOG
HUNTINGTON +   CLOUDY    69  68  96 CALM      29.92S FOG

$$

INZ028-029-035-036-043>045-051>053-301100-
WEST CENTRAL INDIANA

CITY           SKY/WX    TMP DP  RH WIND       PRES   REMARKS
CRAWFORDSVL +  FOG       64  64 100 CALM      29.92S VSB 1/4
GREENCASTLE +  FOG       64  64 100 CALM      29.94R VSB 1/2
LAFAYETTE      FOG       67  67 100 E3        29.91R VSB 1/4
TERRE HAUTE    CLEAR     68  66  93 W3        29.92S

$$

INZ030>032-037>040-046>048-054>057-064-065-301100-
CENTRAL INDIANA

CITY           SKY/WX    TMP DP  RH WIND       PRES   REMARKS
FISHERS *+     CLOUDY    64  64 100 CALM      29.93R VSB 1/4
INDIANAPOLIS   FOG       69  68  96 CALM      29.93R VSB 1/2
-EAGLE CREEK   CLEAR     70  67  90 CALM      29.92R
KOKOMO *+      CLOUDY    66  63  88 E3        29.92S VSB 1/2
MARION +       FOG       67  67 100 CALM      29.94R VSB 1/4
MT COMFORT *+  CLOUDY    63  63 100 CALM      29.93S VSB 1/2
SHELBYVILLE    MOCLDY    67  63  87 CALM      29.92R FOG
ZIONSVILLE +   FOG       64  64  99 CALM      29.94R VSB 1/4

$$

INZ033-034-041-042-049-050-058-059-301100-
EAST CENTRAL INDIANA

CITY           SKY/WX    TMP DP  RH WIND       PRES   REMARKS
MUNCIE         FOG       68  66  93 CALM      29.93S VSB 1/4

$$

INZ060-061-067>069-081>083-085>088-301100-
SOUTHWEST INDIANA

CITY           SKY/WX    TMP DP  RH WIND       PRES   REMARKS
EVANSVILLE     CLOUDY    72  71  97 W3        29.93R
HUNTINGBURG *+ CLOUDY    72  68  88 CALM      29.93S
WASHINGTON +   CLOUDY    71  71 100 MISG      29.93R

$$

INZ062-063-066-070>080-084-089>092-301100-
SOUTH CENTRAL AND SOUTHEAST INDIANA

CITY           SKY/WX    TMP DP  RH WIND       PRES   REMARKS
BLOOMINGTON    CLOUDY    70  68  93 W3        29.94R FOG
MADISON *+     CLOUDY    70  70 100 CALM      29.96R VSB 1
NORTH VERNON + FOG      N/A N/A N/A CALM      29.94R VSB 3/4
SEYMOUR +      CLOUDY    72  72 100 CALM      29.93R FOG

$$





USA.gov is the U.S. government's official web portal to all federal, state and local government web resources and services.